Time,TemperatureF,DewpointF,PressureIn,WindDirection,WindDirectionDegrees,WindSpeedMPH,WindSpeedGustMPH,Humidity,HourlyPrecipIn,Conditions,Clouds,dailyrainin,SoftwareType,DateUTC
2013-04-04 00:02:00,44.0,22.0,30.15,East,100,6.0,8.0,40,-99.99,,,-99.99,,2013-04-04 05:02:00,
2013-04-04 00:13:00,44.0,21.0,30.15,East,100,5.0,7.0,40,-99.99,,,-99.99,,2013-04-04 05:13:00,
2013-04-04 00:23:00,44.0,21.0,30.15,East,100,5.0,7.0,40,-99.99,,,-99.99,,2013-04-04 05:23:00,
2013-04-04 00:32:00,44.0,21.0,30.15,East,85,6.0,9.0,41,-99.99,,,-99.99,,2013-04-04 05:32:00,
2013-04-04 00:42:00,43.0,21.0,30.15,ESE,105,6.0,9.0,41,-99.99,,,-99.99,,2013-04-04 05:42:00,
2013-04-04 00:52:00,43.0,21.0,30.15,ESE,105,6.0,9.0,41,-99.99,,,-99.99,,2013-04-04 05:52:00,
2013-04-04 01:02:00,44.0,22.0,30.15,ESE,115,7.0,9.0,41,-99.99,,,-99.99,,2013-04-04 06:02:00,
2013-04-04 01:12:00,44.0,22.0,30.15,SE,125,6.0,10.0,42,-99.99,,,-99.99,,2013-04-04 06:12:00,
2013-04-04 01:22:00,44.0,22.0,30.15,SE,125,6.0,10.0,42,-99.99,,,-99.99,,2013-04-04 06:22:00,
2013-04-04 01:32:00,43.0,23.0,30.15,ESE,115,5.0,8.0,44,-99.99,,,-99.99,,2013-04-04 06:32:00,
2013-04-04 01:42:00,43.0,23.0,30.15,ESE,105,5.0,8.0,44,-99.99,,,-99.99,,2013-04-04 06:42:00,
2013-04-04 01:52:00,43.0,23.0,30.15,ESE,105,5.0,8.0,44,-99.99,,,-99.99,,2013-04-04 06:52:00,
2013-04-04 02:02:00,42.0,23.0,30.15,ESE,110,5.0,6.0,45,-99.99,,,-99.99,,2013-04-04 07:02:00,
2013-04-04 02:12:00,42.0,23.0,30.15,ESE,105,5.0,7.0,45,-99.99,,,-99.99,,2013-04-04 07:12:00,
2013-04-04 02:22:00,42.0,23.0,30.15,ESE,105,5.0,7.0,45,-99.99,,,-99.99,,2013-04-04 07:22:00,
2013-04-04 02:32:00,42.0,23.0,30.13,ESE,105,7.0,11.0,45,-99.99,,,-99.99,,2013-04-04 07:32:00,
2013-04-04 02:43:00,42.0,22.0,30.12,ESE,110,7.0,11.0,44,-99.99,,,-99.99,,2013-04-04 07:43:00,
2013-04-04 02:52:00,42.0,22.0,30.12,ESE,110,7.0,11.0,44,-99.99,,,-99.99,,2013-04-04 07:52:00,
2013-04-04 03:02:00,42.0,23.0,30.12,ESE,115,6.0,10.0,45,-99.99,,,-99.99,,2013-04-04 08:02:00,
2013-04-04 03:12:00,42.0,23.0,30.12,SE,130,6.0,10.0,46,-99.99,,,-99.99,,2013-04-04 08:12:00,
2013-04-04 03:23:00,42.0,23.0,30.12,SE,130,6.0,10.0,46,-99.99,,,-99.99,,2013-04-04 08:23:00,
2013-04-04 03:32:00,41.0,23.0,30.11,East,95,5.0,8.0,47,-99.99,,,-99.99,,2013-04-04 08:32:00,
2013-04-04 03:43:00,41.0,23.0,30.11,East,85,4.0,7.0,48,-99.99,,,-99.99,,2013-04-04 08:43:00,
2013-04-04 03:52:00,41.0,23.0,30.11,East,85,4.0,7.0,48,-99.99,,,-99.99,,2013-04-04 08:52:00,
2013-04-04 04:03:00,41.0,23.0,30.10,East,100,5.0,9.0,48,-99.99,,,-99.99,,2013-04-04 09:03:00,
2013-04-04 04:12:00,41.0,23.0,30.10,East,90,4.0,7.0,48,-99.99,,,-99.99,,2013-04-04 09:12:00,
2013-04-04 04:22:00,41.0,23.0,30.10,East,90,4.0,7.0,48,-99.99,,,-99.99,,2013-04-04 09:22:00,
2013-04-04 04:33:00,41.0,22.0,30.10,East,85,4.0,6.0,47,-99.99,,,-99.99,,2013-04-04 09:33:00,
2013-04-04 04:43:00,40.0,22.0,30.10,ENE,70,3.0,5.0,49,-99.99,,,-99.99,,2013-04-04 09:43:00,
2013-04-04 04:53:00,40.0,22.0,30.10,ENE,70,3.0,5.0,49,-99.99,,,-99.99,,2013-04-04 09:53:00,
2013-04-04 05:04:00,40.0,23.0,30.10,ENE,70,3.0,5.0,49,-99.99,,,-99.99,,2013-04-04 10:04:00,
2013-04-04 05:12:00,40.0,22.0,30.11,East,80,4.0,4.0,48,-99.99,,,-99.99,,2013-04-04 10:12:00,
2013-04-04 05:24:00,40.0,22.0,30.11,East,80,4.0,4.0,48,-99.99,,,-99.99,,2013-04-04 10:24:00,
2013-04-04 05:33:00,41.0,23.0,30.10,East,85,2.0,4.0,49,-99.99,,,-99.99,,2013-04-04 10:33:00,
2013-04-04 05:42:00,41.0,23.0,30.10,ENE,75,3.0,4.0,48,-99.99,,,-99.99,,2013-04-04 10:42:00,
2013-04-04 05:53:00,41.0,23.0,30.10,ENE,75,3.0,4.0,48,-99.99,,,-99.99,,2013-04-04 10:53:00,
2013-04-04 06:02:00,41.0,23.0,30.10,ENE,65,3.0,4.0,49,-99.99,,,-99.99,,2013-04-04 11:02:00,
2013-04-04 06:12:00,41.0,23.0,30.09,NE,55,2.0,4.0,48,-99.99,,,-99.99,,2013-04-04 11:12:00,
2013-04-04 06:22:00,41.0,23.0,30.09,NE,55,2.0,4.0,48,-99.99,,,-99.99,,2013-04-04 11:22:00,
2013-04-04 06:33:00,41.0,23.0,30.09,ENE,70,3.0,4.0,49,-99.99,,,-99.99,,2013-04-04 11:33:00,
2013-04-04 06:42:00,41.0,23.0,30.09,ENE,60,3.0,5.0,49,-99.99,,,-99.99,,2013-04-04 11:42:00,
2013-04-04 06:53:00,41.0,23.0,30.09,ENE,60,3.0,5.0,49,-99.99,,,-99.99,,2013-04-04 11:53:00,
2013-04-04 07:00:00,41.0,25.0,30.10,NE,50,4.0,8.0,53,-99.99,,,-99.99,,2013-04-04 12:00:00,
2013-04-04 07:02:00,41.0,25.0,30.09,NE,55,4.0,6.0,51,-99.99,,,-99.99,,2013-04-04 12:02:00,
2013-04-04 07:12:00,41.0,24.0,30.10,NNE,30,4.0,6.0,51,-99.99,,,-99.99,,2013-04-04 12:12:00,
2013-04-04 07:22:00,41.0,24.0,30.10,NNE,30,4.0,6.0,51,-99.99,,,-99.99,,2013-04-04 12:22:00,
2013-04-04 07:32:00,41.0,24.0,30.10,NNE,30,6.0,7.0,52,-99.99,,,-99.99,,2013-04-04 12:32:00,
2013-04-04 07:43:00,41.0,25.0,30.10,NE,50,4.0,8.0,53,-99.99,,,-99.99,,2013-04-04 12:43:00,
2013-04-04 07:52:00,41.0,25.0,30.10,NE,50,4.0,8.0,53,-99.99,,,-99.99,,2013-04-04 12:52:00,
2013-04-04 08:12:00,42.0,25.0,30.11,NNE,30,1.0,4.0,52,-99.99,,,-99.99,,2013-04-04 13:12:00,
2013-04-04 08:22:00,42.0,25.0,30.11,NNE,30,1.0,4.0,52,-99.99,,,-99.99,,2013-04-04 13:22:00,
2013-04-04 08:32:00,42.0,25.0,30.11,NE,40,5.0,6.0,51,-99.99,,,-99.99,,2013-04-04 13:32:00,
2013-04-04 08:42:00,42.0,25.0,30.11,East,80,3.0,7.0,52,-99.99,,,-99.99,,2013-04-04 13:42:00,
2013-04-04 08:52:00,42.0,25.0,30.11,East,80,3.0,7.0,52,-99.99,,,-99.99,,2013-04-04 13:52:00,
2013-04-04 09:00:00,43.0,24.0,30.10,ENE,75,4.0,5.0,47,-99.99,,,-99.99,,2013-04-04 14:00:00,
2013-04-04 09:03:00,42.0,26.0,30.11,NE,40,3.0,6.0,51,-99.99,,,-99.99,,2013-04-04 14:03:00,
2013-04-04 09:13:00,42.0,24.0,30.11,East,85,4.0,5.0,48,-99.99,,,-99.99,,2013-04-04 14:13:00,
2013-04-04 09:22:00,42.0,24.0,30.11,East,85,4.0,5.0,48,-99.99,,,-99.99,,2013-04-04 14:22:00,
2013-04-04 09:33:00,43.0,24.0,30.10,ENE,70,4.0,6.0,47,-99.99,,,-99.99,,2013-04-04 14:33:00,
2013-04-04 09:42:00,43.0,24.0,30.10,ENE,75,4.0,5.0,47,-99.99,,,-99.99,,2013-04-04 14:42:00,
2013-04-04 09:52:00,43.0,24.0,30.10,ENE,75,4.0,5.0,47,-99.99,,,-99.99,,2013-04-04 14:52:00,
2013-04-04 10:12:00,44.0,26.0,30.09,East,90,4.0,6.0,48,-99.99,,,-99.99,,2013-04-04 15:12:00,
2013-04-04 10:23:00,44.0,26.0,30.09,East,90,4.0,6.0,48,-99.99,,,-99.99,,2013-04-04 15:23:00,
2013-04-04 10:33:00,45.0,25.0,30.09,ENE,75,6.0,7.0,46,-99.99,,,-99.99,,2013-04-04 15:33:00,
2013-04-04 10:43:00,45.0,24.0,30.08,East,100,5.0,7.0,43,-99.99,,,-99.99,,2013-04-04 15:43:00,
2013-04-04 10:53:00,45.0,24.0,30.08,East,100,5.0,7.0,43,-99.99,,,-99.99,,2013-04-04 15:53:00,
2013-04-04 11:03:00,46.0,22.0,30.08,East,95,4.0,9.0,38,-99.99,,,-99.99,,2013-04-04 16:03:00,
2013-04-04 11:12:00,47.0,23.0,30.08,NE,40,8.0,10.0,38,-99.99,,,-99.99,,2013-04-04 16:12:00,
2013-04-04 11:24:00,47.0,23.0,30.08,NE,40,8.0,10.0,38,-99.99,,,-99.99,,2013-04-04 16:24:00,
2013-04-04 11:32:00,49.0,25.0,30.08,NE,35,4.0,12.0,40,-99.99,,,-99.99,,2013-04-04 16:32:00,
2013-04-04 11:42:00,49.0,22.0,30.08,NE,45,9.0,13.0,35,-99.99,,,-99.99,,2013-04-04 16:42:00,
2013-04-04 11:53:00,49.0,22.0,30.08,NE,45,9.0,13.0,35,-99.99,,,-99.99,,2013-04-04 16:53:00,
2013-04-04 12:03:00,50.0,22.0,30.08,NE,40,10.0,13.0,33,-99.99,,,-99.99,,2013-04-04 17:03:00,
2013-04-04 12:13:00,50.0,22.0,30.07,NNE,30,11.0,17.0,33,-99.99,,,-99.99,,2013-04-04 17:13:00,
2013-04-04 12:22:00,50.0,22.0,30.07,NNE,30,11.0,17.0,33,-99.99,,,-99.99,,2013-04-04 17:22:00,
2013-04-04 12:33:00,51.0,24.0,30.07,NE,45,10.0,17.0,34,-99.99,,,-99.99,,2013-04-04 17:33:00,
2013-04-04 12:42:00,52.0,25.0,30.07,NE,45,12.0,17.0,34,-99.99,,,-99.99,,2013-04-04 17:42:00,
2013-04-04 12:52:00,52.0,25.0,30.07,NE,45,12.0,17.0,34,-99.99,,,-99.99,,2013-04-04 17:52:00,
2013-04-04 13:00:00,54.0,25.0,30.07,ENE,60,10.0,15.0,32,-99.99,,,-99.99,,2013-04-04 18:00:00,
2013-04-04 13:02:00,53.0,24.0,30.07,ENE,60,15.0,20.0,31,-99.99,,,-99.99,,2013-04-04 18:02:00,
2013-04-04 13:12:00,52.0,23.0,30.07,NE,45,12.0,17.0,31,-99.99,,,-99.99,,2013-04-04 18:12:00,
2013-04-04 13:23:00,52.0,23.0,30.07,NE,45,12.0,17.0,31,-99.99,,,-99.99,,2013-04-04 18:23:00,
2013-04-04 13:32:00,53.0,25.0,30.07,East,85,8.0,10.0,34,-99.99,,,-99.99,,2013-04-04 18:32:00,
2013-04-04 13:43:00,54.0,25.0,30.07,ENE,60,10.0,15.0,32,-99.99,,,-99.99,,2013-04-04 18:43:00,
2013-04-04 13:52:00,54.0,25.0,30.07,ENE,60,10.0,15.0,32,-99.99,,,-99.99,,2013-04-04 18:52:00,
2013-04-04 14:12:00,55.0,24.0,30.06,NE,40,5.0,13.0,30,-99.99,,,-99.99,,2013-04-04 19:12:00,
2013-04-04 14:22:00,55.0,24.0,30.06,NE,40,5.0,13.0,30,-99.99,,,-99.99,,2013-04-04 19:22:00,
2013-04-04 14:32:00,56.0,25.0,30.05,NNE,30,12.0,15.0,30,-99.99,,,-99.99,,2013-04-04 19:32:00,
2013-04-04 14:42:00,56.0,24.0,30.05,NNE,30,9.0,20.0,29,-99.99,,,-99.99,,2013-04-04 19:42:00,
2013-04-04 14:52:00,56.0,24.0,30.05,NNE,30,9.0,20.0,29,-99.99,,,-99.99,,2013-04-04 19:52:00,
2013-04-04 15:03:00,56.0,24.0,30.04,NNE,20,11.0,15.0,29,-99.99,,,-99.99,,2013-04-04 20:03:00,
2013-04-04 15:12:00,56.0,24.0,30.04,NE,50,9.0,14.0,29,-99.99,,,-99.99,,2013-04-04 20:12:00,
2013-04-04 15:23:00,56.0,24.0,30.04,NE,50,9.0,14.0,29,-99.99,,,-99.99,,2013-04-04 20:23:00,
2013-04-04 15:32:00,56.0,25.0,30.04,ENE,65,2.0,17.0,30,-99.99,,,-99.99,,2013-04-04 20:32:00,
2013-04-04 15:42:00,57.0,25.0,30.04,NE,55,9.0,19.0,29,-99.99,,,-99.99,,2013-04-04 20:42:00,
2013-04-04 15:52:00,57.0,25.0,30.04,NE,55,9.0,19.0,29,-99.99,,,-99.99,,2013-04-04 20:52:00,
2013-04-04 16:02:00,57.0,25.0,30.03,NNE,25,8.0,12.0,29,-99.99,,,-99.99,,2013-04-04 21:02:00,
2013-04-04 16:12:00,57.0,23.0,30.03,NNE,20,10.0,15.0,27,-99.99,,,-99.99,,2013-04-04 21:12:00,
2013-04-04 16:22:00,57.0,23.0,30.03,NNE,20,10.0,15.0,27,-99.99,,,-99.99,,2013-04-04 21:22:00,
2013-04-04 16:32:00,58.0,25.0,30.02,North,5,5.0,11.0,28,-99.99,,,-99.99,,2013-04-04 21:32:00,
2013-04-04 16:43:00,57.0,24.0,30.02,North,355,8.0,11.0,27,-99.99,,,-99.99,,2013-04-04 21:43:00,
2013-04-04 16:52:00,57.0,24.0,30.02,North,355,8.0,11.0,27,-99.99,,,-99.99,,2013-04-04 21:52:00,
2013-04-04 17:04:00,57.0,23.0,30.02,ENE,60,7.0,12.0,27,-99.99,,,-99.99,,2013-04-04 22:04:00,
2013-04-04 17:12:00,58.0,25.0,30.02,North,0,5.0,12.0,28,-99.99,,,-99.99,,2013-04-04 22:12:00,
2013-04-04 17:23:00,58.0,25.0,30.02,North,0,5.0,12.0,28,-99.99,,,-99.99,,2013-04-04 22:23:00,
2013-04-04 17:33:00,58.0,26.0,30.02,North,5,11.0,13.0,29,-99.99,,,-99.99,,2013-04-04 22:33:00,
2013-04-04 17:42:00,58.0,27.0,30.02,North,10,7.0,12.0,30,-99.99,,,-99.99,,2013-04-04 22:42:00,
2013-04-04 17:53:00,58.0,27.0,30.02,North,10,7.0,12.0,30,-99.99,,,-99.99,,2013-04-04 22:53:00,
2013-04-04 18:03:00,57.0,25.0,30.02,NNE,30,8.0,10.0,28,-99.99,,,-99.99,,2013-04-04 23:03:00,
2013-04-04 18:12:00,57.0,26.0,30.02,NNE,25,8.0,13.0,30,-99.99,,,-99.99,,2013-04-04 23:12:00,
2013-04-04 18:22:00,57.0,26.0,30.02,NNE,25,8.0,13.0,30,-99.99,,,-99.99,,2013-04-04 23:22:00,
2013-04-04 18:32:00,56.0,27.0,30.02,North,0,9.0,13.0,32,-99.99,,,-99.99,,2013-04-04 23:32:00,
2013-04-04 18:42:00,56.0,27.0,30.02,North,5,9.0,11.0,32,-99.99,,,-99.99,,2013-04-04 23:42:00,
2013-04-04 18:52:00,56.0,27.0,30.02,North,5,9.0,11.0,32,-99.99,,,-99.99,,2013-04-04 23:52:00,
2013-04-04 19:02:00,56.0,26.0,30.02,North,0,10.0,13.0,31,-99.99,,,-99.99,,2013-04-05 00:02:00,
2013-04-04 19:12:00,56.0,26.0,30.02,North,355,9.0,13.0,31,-99.99,,,-99.99,,2013-04-05 00:12:00,
2013-04-04 19:22:00,56.0,26.0,30.02,North,355,9.0,13.0,31,-99.99,,,-99.99,,2013-04-05 00:22:00,
2013-04-04 19:32:00,56.0,26.0,30.02,North,0,8.0,11.0,31,-99.99,,,-99.99,,2013-04-05 00:32:00,
2013-04-04 19:42:00,56.0,25.0,30.03,North,0,7.0,11.0,30,-99.99,,,-99.99,,2013-04-05 00:42:00,
2013-04-04 19:52:00,56.0,25.0,30.03,North,0,7.0,11.0,30,-99.99,,,-99.99,,2013-04-05 00:52:00,
2013-04-04 20:02:00,55.0,25.0,30.02,North,5,5.0,8.0,31,-99.99,,,-99.99,,2013-04-05 01:02:00,
2013-04-04 20:12:00,55.0,25.0,30.02,North,355,4.0,6.0,31,-99.99,,,-99.99,,2013-04-05 01:12:00,
2013-04-04 20:22:00,55.0,25.0,30.02,North,355,4.0,6.0,31,-99.99,,,-99.99,,2013-04-05 01:22:00,
2013-04-04 20:32:00,54.0,25.0,30.02,North,0,3.0,6.0,32,-99.99,,,-99.99,,2013-04-05 01:32:00,
2013-04-04 20:42:00,54.0,25.0,30.02,North,355,5.0,7.0,33,-99.99,,,-99.99,,2013-04-05 01:42:00,
2013-04-04 20:52:00,54.0,25.0,30.02,North,355,5.0,7.0,33,-99.99,,,-99.99,,2013-04-05 01:52:00,
2013-04-04 21:03:00,53.0,26.0,30.03,North,0,2.0,5.0,35,-99.99,,,-99.99,,2013-04-05 02:03:00,
2013-04-04 21:12:00,53.0,25.0,30.03,NNW,340,3.0,4.0,34,-99.99,,,-99.99,,2013-04-05 02:12:00,
2013-04-04 21:22:00,53.0,25.0,30.03,NNW,340,3.0,4.0,34,-99.99,,,-99.99,,2013-04-05 02:22:00,
2013-04-04 21:32:00,52.0,25.0,30.04,NW,325,3.0,4.0,35,-99.99,,,-99.99,,2013-04-05 02:32:00,
2013-04-04 21:42:00,51.0,25.0,30.04,NNW,330,3.0,4.0,35,-99.99,,,-99.99,,2013-04-05 02:42:00,
2013-04-04 21:52:00,51.0,25.0,30.04,NNW,330,3.0,4.0,35,-99.99,,,-99.99,,2013-04-05 02:52:00,
2013-04-04 22:02:00,49.0,26.0,30.04,NW,305,3.0,4.0,39,-99.99,,,-99.99,,2013-04-05 03:02:00,
2013-04-04 22:12:00,49.0,25.0,30.05,NW,325,4.0,6.0,39,-99.99,,,-99.99,,2013-04-05 03:12:00,
2013-04-04 22:22:00,49.0,25.0,30.05,NW,325,4.0,6.0,39,-99.99,,,-99.99,,2013-04-05 03:22:00,
2013-04-04 22:32:00,49.0,26.0,30.06,NNW,345,3.0,5.0,40,-99.99,,,-99.99,,2013-04-05 03:32:00,
2013-04-04 22:43:00,49.0,26.0,30.06,NW,320,2.0,4.0,41,-99.99,,,-99.99,,2013-04-05 03:43:00,
2013-04-04 22:53:00,49.0,26.0,30.06,NW,320,2.0,4.0,41,-99.99,,,-99.99,,2013-04-05 03:53:00,
2013-04-04 23:02:00,48.0,27.0,30.06,NW,310,2.0,3.0,44,-99.99,,,-99.99,,2013-04-05 04:02:00,
2013-04-04 23:12:00,47.0,27.0,30.06,West,280,2.0,3.0,46,-99.99,,,-99.99,,2013-04-05 04:12:00,
2013-04-04 23:22:00,47.0,27.0,30.06,West,280,2.0,3.0,46,-99.99,,,-99.99,,2013-04-05 04:22:00,
2013-04-04 23:32:00,46.0,28.0,30.06,West,265,2.0,2.0,49,-99.99,,,-99.99,,2013-04-05 04:32:00,
2013-04-04 23:42:00,47.0,27.0,30.06,West,270,0.0,2.0,47,-99.99,,,-99.99,,2013-04-05 04:42:00,
2013-04-04 23:52:00,47.0,27.0,30.06,West,270,0.0,2.0,47,-99.99,,,-99.99,,2013-04-05 04:52:00,